Location: Newark
(52.4787°S, 179.0532°W)
Time: 12:46:45
(UTC+00:00)

Transit 2A Rocket - Pass Details

Date: 28 November 2019
Orbit: 594 x 909 km, 66.7° (Epoch: 05 December)

Event Time Altitude Azimuth Distance (km) Brightness Sun altitude
Rises 02:21:38 0° 222° (SW) 3,571 8.6 46.5°
Reaches altitude 10° 02:24:19 10° 215° (SW) 2,629 7.9 46.2°
Maximum altitude 02:30:12 44° 143° (SE) 1,236 6.2 45.4°
Drops below altitude 10° 02:35:53 10° 71° (ENE) 2,530 7.5 44.6°
Sets 02:38:25 0° 64° (ENE) 3,425 8.1 44.3°
